Year,Month,Day,Hour,Minute,Value (Times are PST for temperature in C)
2016,05,19,00,00,11.10
2016,05,19,00,01,11.10
2016,05,19,00,02,11.10
2016,05,19,00,03,11.10
2016,05,19,00,04,11.10
2016,05,19,00,05,11.10
2016,05,19,00,06,11.10
2016,05,19,00,07,11.10
2016,05,19,00,08,11.10
2016,05,19,00,09,11.10
2016,05,19,00,10,11.10
2016,05,19,00,11,11.10
2016,05,19,00,12,11.10
2016,05,19,00,13,11.00
2016,05,19,00,14,11.00
2016,05,19,00,15,11.00
2016,05,19,00,16,11.00
2016,05,19,00,17,10.90
2016,05,19,00,18,10.90
2016,05,19,00,19,10.90
2016,05,19,00,20,10.90
2016,05,19,00,21,10.90
2016,05,19,00,22,10.90
2016,05,19,00,23,10.90
2016,05,19,00,24,10.90
2016,05,19,00,25,10.90
2016,05,19,00,26,10.90
2016,05,19,00,27,10.90
2016,05,19,00,28,10.90
2016,05,19,00,29,10.80
2016,05,19,00,30,10.80
2016,05,19,00,31,10.80
2016,05,19,00,32,10.80
2016,05,19,00,33,10.80
2016,05,19,00,34,10.80
2016,05,19,00,35,10.80
2016,05,19,00,36,10.80
2016,05,19,00,37,10.80
2016,05,19,00,38,10.80
2016,05,19,00,39,10.70
2016,05,19,00,40,10.70
2016,05,19,00,41,10.70
2016,05,19,00,42,10.70
2016,05,19,00,43,10.70
2016,05,19,00,44,10.70
2016,05,19,00,45,10.60
2016,05,19,00,46,10.70
2016,05,19,00,47,10.70
2016,05,19,00,48,10.70
2016,05,19,00,49,10.70
2016,05,19,00,50,10.70
2016,05,19,00,51,10.70
2016,05,19,00,52,10.70
2016,05,19,00,53,10.60
2016,05,19,00,54,10.60
2016,05,19,00,55,10.60
2016,05,19,00,56,10.50
2016,05,19,00,57,10.50
2016,05,19,00,58,10.40
2016,05,19,00,59,10.40
2016,05,19,01,00,10.40
2016,05,19,01,01,10.30
2016,05,19,01,02,10.30
2016,05,19,01,03,10.30
2016,05,19,01,04,10.20
2016,05,19,01,05,10.20
2016,05,19,01,06,10.20
2016,05,19,01,07,10.10
2016,05,19,01,08,10.10
2016,05,19,01,09,9.90
2016,05,19,01,10,9.80
2016,05,19,01,11,9.70
2016,05,19,01,12,9.70
2016,05,19,01,13,9.60
2016,05,19,01,14,9.50
2016,05,19,01,15,9.50
2016,05,19,01,16,9.40
2016,05,19,01,17,9.30
2016,05,19,01,18,9.30
2016,05,19,01,19,9.30
2016,05,19,01,20,9.30
2016,05,19,01,21,9.30
2016,05,19,01,22,9.30
2016,05,19,01,23,9.30
2016,05,19,01,24,9.30
2016,05,19,01,25,9.30
2016,05,19,01,26,9.30
2016,05,19,01,27,9.30
2016,05,19,01,28,9.30
2016,05,19,01,29,9.20
2016,05,19,01,30,9.20
2016,05,19,01,31,9.20
2016,05,19,01,32,9.10
2016,05,19,01,33,9.10
2016,05,19,01,34,9.10
2016,05,19,01,35,9.00
2016,05,19,01,36,9.00
2016,05,19,01,37,9.00
2016,05,19,01,38,9.00
2016,05,19,01,39,9.00
2016,05,19,01,40,8.90
2016,05,19,01,41,8.90
2016,05,19,01,42,8.80
2016,05,19,01,43,8.80
2016,05,19,01,44,8.70
2016,05,19,01,45,8.70
2016,05,19,01,46,8.70
2016,05,19,01,47,8.60
2016,05,19,01,48,8.60
2016,05,19,01,49,8.60
2016,05,19,01,50,8.50
2016,05,19,01,51,8.50
2016,05,19,01,52,8.40
2016,05,19,01,53,8.40
2016,05,19,01,54,8.40
2016,05,19,01,55,8.40
2016,05,19,01,56,8.40
2016,05,19,01,57,8.40
2016,05,19,01,58,8.40
2016,05,19,01,59,8.40
2016,05,19,02,00,8.30
2016,05,19,02,01,8.30
2016,05,19,02,02,8.30
2016,05,19,02,03,8.30
2016,05,19,02,04,8.30
2016,05,19,02,05,8.20
2016,05,19,02,06,8.20
2016,05,19,02,07,8.20
2016,05,19,02,08,8.20
2016,05,19,02,09,8.10
2016,05,19,02,10,8.10
2016,05,19,02,11,8.10
2016,05,19,02,12,8.10
2016,05,19,02,13,8.00
2016,05,19,02,14,8.00
2016,05,19,02,15,8.00
2016,05,19,02,16,8.00
2016,05,19,02,17,7.90
2016,05,19,02,18,7.90
2016,05,19,02,19,7.90
2016,05,19,02,20,7.90
2016,05,19,02,21,7.80
2016,05,19,02,22,7.80
2016,05,19,02,23,7.80
2016,05,19,02,24,7.70
2016,05,19,02,25,7.70
2016,05,19,02,26,7.70
2016,05,19,02,27,7.70
2016,05,19,02,28,7.70
2016,05,19,02,29,7.70
2016,05,19,02,30,7.70
2016,05,19,02,31,7.70
2016,05,19,02,32,7.70
2016,05,19,02,33,7.70
2016,05,19,02,34,7.60
2016,05,19,02,35,7.60
2016,05,19,02,36,7.60
2016,05,19,02,37,7.60
2016,05,19,02,38,7.50
2016,05,19,02,39,7.50
2016,05,19,02,40,7.50
2016,05,19,02,41,7.60
2016,05,19,02,42,7.50
2016,05,19,02,43,7.50
2016,05,19,02,44,7.50
2016,05,19,02,45,7.50
2016,05,19,02,46,7.50
2016,05,19,02,47,7.40
2016,05,19,02,48,7.40
2016,05,19,02,49,7.40
2016,05,19,02,50,7.40
2016,05,19,02,51,7.40
2016,05,19,02,52,7.40
2016,05,19,02,53,7.40
2016,05,19,02,54,7.30
2016,05,19,02,55,7.30
2016,05,19,02,56,7.30
2016,05,19,02,57,7.30
2016,05,19,02,58,7.30
2016,05,19,02,59,7.30
2016,05,19,03,00,7.20
2016,05,19,03,01,7.20
2016,05,19,03,02,7.20
2016,05,19,03,03,7.20
2016,05,19,03,04,7.20
2016,05,19,03,05,7.20
2016,05,19,03,06,7.30
2016,05,19,03,07,7.30
2016,05,19,03,08,7.30
2016,05,19,03,09,7.30
2016,05,19,03,10,7.30
2016,05,19,03,11,7.30
2016,05,19,03,12,7.30
2016,05,19,03,13,7.30
2016,05,19,03,14,7.30
2016,05,19,03,15,7.30
2016,05,19,03,16,7.20
2016,05,19,03,17,7.20
2016,05,19,03,18,7.20
2016,05,19,03,19,7.20
2016,05,19,03,20,7.20
2016,05,19,03,21,7.20
2016,05,19,03,22,7.20
2016,05,19,03,23,7.20
2016,05,19,03,24,7.20
2016,05,19,03,25,7.20
2016,05,19,03,26,7.20
2016,05,19,03,27,7.10
2016,05,19,03,28,7.10
2016,05,19,03,29,7.10
2016,05,19,03,30,7.10
2016,05,19,03,31,7.10
2016,05,19,03,32,7.10
2016,05,19,03,33,7.10
2016,05,19,03,34,7.10
2016,05,19,03,35,7.00
2016,05,19,03,36,7.00
2016,05,19,03,37,7.00
2016,05,19,03,38,7.00
2016,05,19,03,39,7.00
2016,05,19,03,40,6.90
2016,05,19,03,41,6.90
2016,05,19,03,42,6.90
2016,05,19,03,43,6.90
2016,05,19,03,44,6.90
2016,05,19,03,45,6.80
2016,05,19,03,46,6.80
2016,05,19,03,47,6.80
2016,05,19,03,48,6.80
2016,05,19,03,49,6.80
2016,05,19,03,50,6.80
2016,05,19,03,51,6.70
2016,05,19,03,52,6.70
2016,05,19,03,53,6.70
2016,05,19,03,54,6.70
2016,05,19,03,55,6.70
2016,05,19,03,56,6.70
2016,05,19,03,57,6.70
2016,05,19,03,58,6.70
2016,05,19,03,59,6.80
2016,05,19,04,00,6.80
2016,05,19,04,01,6.90
2016,05,19,04,02,6.90
2016,05,19,04,03,6.90
2016,05,19,04,04,6.90
2016,05,19,04,05,6.90
2016,05,19,04,06,6.90
2016,05,19,04,07,6.90
2016,05,19,04,08,6.90
2016,05,19,04,09,6.80
2016,05,19,04,10,6.80
2016,05,19,04,11,6.80
2016,05,19,04,12,6.80
2016,05,19,04,13,6.80
2016,05,19,04,14,6.70
2016,05,19,04,15,6.70
2016,05,19,04,16,6.70
2016,05,19,04,17,6.70
2016,05,19,04,18,6.70
2016,05,19,04,19,6.70
2016,05,19,04,20,6.70
2016,05,19,04,21,6.70
2016,05,19,04,22,6.70
2016,05,19,04,23,6.70
2016,05,19,04,24,6.70
2016,05,19,04,25,6.70
2016,05,19,04,26,6.70
2016,05,19,04,27,6.70
2016,05,19,04,28,6.70
2016,05,19,04,29,6.70
2016,05,19,04,30,6.80
2016,05,19,04,31,6.80
2016,05,19,04,32,6.80
2016,05,19,04,33,6.80
2016,05,19,04,34,6.80
2016,05,19,04,35,6.80
2016,05,19,04,36,6.80
2016,05,19,04,37,6.80
2016,05,19,04,38,6.80
2016,05,19,04,39,6.80
2016,05,19,04,40,6.80
2016,05,19,04,41,6.80
2016,05,19,04,42,6.80
2016,05,19,04,43,6.80
2016,05,19,04,44,6.80
2016,05,19,04,45,6.80
2016,05,19,04,46,6.90
2016,05,19,04,47,6.90
2016,05,19,04,48,6.90
2016,05,19,04,49,7.00
2016,05,19,04,50,7.00
2016,05,19,04,51,7.00
2016,05,19,04,52,7.00
2016,05,19,04,53,7.00
2016,05,19,04,54,7.00
2016,05,19,04,55,7.10
2016,05,19,04,56,7.10
2016,05,19,04,57,7.10
2016,05,19,04,58,7.10
2016,05,19,04,59,7.10
2016,05,19,05,00,7.10
2016,05,19,05,01,7.10
2016,05,19,05,02,7.10
2016,05,19,05,03,7.10
2016,05,19,05,04,7.10
2016,05,19,05,05,7.10
2016,05,19,05,06,7.10
2016,05,19,05,07,7.10
2016,05,19,05,08,7.10
2016,05,19,05,09,7.10
2016,05,19,05,10,7.10
2016,05,19,05,11,7.10
2016,05,19,05,12,7.10
2016,05,19,05,13,7.10
2016,05,19,05,14,7.10
2016,05,19,05,15,7.10
2016,05,19,05,16,7.10
2016,05,19,05,17,7.20
2016,05,19,05,18,7.20
2016,05,19,05,19,7.20
2016,05,19,05,20,7.20
2016,05,19,05,21,7.30
2016,05,19,05,22,7.30
2016,05,19,05,23,7.30
2016,05,19,05,24,7.30
2016,05,19,05,25,7.30
2016,05,19,05,26,7.30
2016,05,19,05,27,7.30
2016,05,19,05,28,7.30
2016,05,19,05,29,7.30
2016,05,19,05,30,7.30
2016,05,19,05,31,7.30
2016,05,19,05,32,7.30
2016,05,19,05,33,7.30
2016,05,19,05,34,7.30
2016,05,19,05,35,7.30
2016,05,19,05,36,7.20
2016,05,19,05,37,7.20
2016,05,19,05,38,7.20
2016,05,19,05,39,7.20
2016,05,19,05,40,7.20
2016,05,19,05,41,7.20
2016,05,19,05,42,7.20
2016,05,19,05,43,7.20
2016,05,19,05,44,7.20
2016,05,19,05,45,7.30
2016,05,19,05,46,7.30
2016,05,19,05,47,7.30
2016,05,19,05,48,7.30
2016,05,19,05,49,7.30
2016,05,19,05,50,7.30
2016,05,19,05,51,7.30
2016,05,19,05,52,7.30
2016,05,19,05,53,7.30
2016,05,19,05,54,7.30
2016,05,19,05,55,7.30
2016,05,19,05,56,7.30
2016,05,19,05,57,7.30
2016,05,19,05,58,7.40
2016,05,19,05,59,7.40
2016,05,19,06,00,7.40
2016,05,19,06,01,7.40
2016,05,19,06,02,7.40
2016,05,19,06,03,7.40
2016,05,19,06,04,7.40
2016,05,19,06,05,7.40
2016,05,19,06,06,7.40
2016,05,19,06,07,7.40
2016,05,19,06,08,7.40
2016,05,19,06,09,7.40
2016,05,19,06,10,7.40
2016,05,19,06,11,7.40
2016,05,19,06,12,7.40
2016,05,19,06,13,7.40
2016,05,19,06,14,7.40
2016,05,19,06,15,7.40
2016,05,19,06,16,7.40
2016,05,19,06,17,7.40
2016,05,19,06,18,7.40
2016,05,19,06,19,7.40
2016,05,19,06,20,7.40
2016,05,19,06,21,7.50
2016,05,19,06,22,7.50
2016,05,19,06,23,7.50
2016,05,19,06,24,7.50
2016,05,19,06,25,7.60
2016,05,19,06,26,7.60
2016,05,19,06,27,7.60
2016,05,19,06,28,7.60
2016,05,19,06,29,7.60
2016,05,19,06,30,7.60
2016,05,19,06,31,7.60
2016,05,19,06,32,7.60
2016,05,19,06,33,7.60
2016,05,19,06,34,7.70
2016,05,19,06,35,7.70
2016,05,19,06,36,7.70
2016,05,19,06,37,7.80
2016,05,19,06,38,7.80
2016,05,19,06,39,7.80
2016,05,19,06,40,7.90
2016,05,19,06,41,7.90
2016,05,19,06,42,8.00
2016,05,19,06,43,8.00
2016,05,19,06,44,8.00
2016,05,19,06,45,8.10
2016,05,19,06,46,8.10
2016,05,19,06,47,8.10
2016,05,19,06,48,8.10
2016,05,19,06,49,8.20
2016,05,19,06,50,8.20
2016,05,19,06,51,8.20
2016,05,19,06,52,8.20
2016,05,19,06,53,8.20
2016,05,19,06,54,8.20
2016,05,19,06,55,8.20
2016,05,19,06,56,8.30
2016,05,19,06,57,8.30
2016,05,19,06,58,8.30
2016,05,19,06,59,8.30
2016,05,19,07,00,8.30
2016,05,19,07,01,8.30
2016,05,19,07,02,8.40
2016,05,19,07,03,8.40
2016,05,19,07,04,8.50
2016,05,19,07,05,8.60
2016,05,19,07,06,8.60
2016,05,19,07,07,8.70
2016,05,19,07,08,8.70
2016,05,19,07,09,8.70
2016,05,19,07,10,8.70
2016,05,19,07,11,8.80
2016,05,19,07,12,8.80
2016,05,19,07,13,8.80
2016,05,19,07,14,8.80
2016,05,19,07,15,8.90
2016,05,19,07,16,8.90
2016,05,19,07,17,9.00
2016,05,19,07,18,9.00
2016,05,19,07,19,9.10
2016,05,19,07,20,9.10
2016,05,19,07,21,9.20
2016,05,19,07,22,9.20
2016,05,19,07,23,9.30
2016,05,19,07,24,9.30
2016,05,19,07,25,9.40
2016,05,19,07,26,9.40
2016,05,19,07,27,9.40
2016,05,19,07,28,9.50
2016,05,19,07,29,9.50
2016,05,19,07,30,9.60
2016,05,19,07,31,9.60
2016,05,19,07,32,9.60
2016,05,19,07,33,9.70
2016,05,19,07,34,9.70
2016,05,19,07,35,9.70
2016,05,19,07,36,9.70
2016,05,19,07,37,9.80
2016,05,19,07,38,9.80
2016,05,19,07,39,9.80
2016,05,19,07,40,9.80
2016,05,19,07,41,9.90
2016,05,19,07,42,9.90
2016,05,19,07,43,10.00
2016,05,19,07,44,10.00
2016,05,19,07,45,10.10
2016,05,19,07,46,10.10
2016,05,19,07,47,10.20
2016,05,19,07,48,10.20
2016,05,19,07,49,10.30
2016,05,19,07,50,10.30
2016,05,19,07,51,10.30
2016,05,19,07,52,10.30
2016,05,19,07,53,10.30
2016,05,19,07,54,10.40
2016,05,19,07,55,10.40
2016,05,19,07,56,10.40
2016,05,19,07,57,10.40
2016,05,19,07,58,10.40
2016,05,19,07,59,10.50
2016,05,19,08,00,10.50
2016,05,19,08,01,10.50
2016,05,19,08,02,10.60
2016,05,19,08,03,10.60
2016,05,19,08,04,10.60
2016,05,19,08,05,10.60
2016,05,19,08,06,10.70
2016,05,19,08,07,10.70
2016,05,19,08,08,10.70
2016,05,19,08,09,10.80
2016,05,19,08,10,10.80
2016,05,19,08,11,10.80
2016,05,19,08,12,10.80
2016,05,19,08,13,10.90
2016,05,19,08,14,10.90
2016,05,19,08,15,10.90
2016,05,19,08,16,11.00
2016,05,19,08,17,11.00
2016,05,19,08,18,11.10
2016,05,19,08,19,11.10
2016,05,19,08,20,11.10
2016,05,19,08,21,11.10
2016,05,19,08,22,11.10
2016,05,19,08,23,11.10
2016,05,19,08,24,11.20
2016,05,19,08,25,11.20
2016,05,19,08,26,11.20
2016,05,19,08,27,11.20
2016,05,19,08,28,11.20
2016,05,19,08,29,11.20
2016,05,19,08,30,11.20
2016,05,19,08,31,11.30
2016,05,19,08,32,11.30
2016,05,19,08,33,11.30
2016,05,19,08,34,11.30
2016,05,19,08,35,11.40
2016,05,19,08,36,11.40
2016,05,19,08,37,11.50
2016,05,19,08,38,11.50
2016,05,19,08,39,11.50
2016,05,19,08,40,11.50
2016,05,19,08,41,11.50
2016,05,19,08,42,11.50
2016,05,19,08,43,11.50
2016,05,19,08,44,11.50
2016,05,19,08,45,11.50
2016,05,19,08,46,11.50
2016,05,19,08,47,11.50
2016,05,19,08,48,11.50
2016,05,19,08,49,11.50
2016,05,19,08,50,11.50
2016,05,19,08,51,11.50
2016,05,19,08,52,11.60
2016,05,19,08,53,11.60
2016,05,19,08,54,11.60
2016,05,19,08,55,11.60
2016,05,19,08,56,11.60
2016,05,19,08,57,11.60
2016,05,19,08,58,11.60
2016,05,19,08,59,11.60
2016,05,19,09,00,11.60
2016,05,19,09,01,11.60
2016,05,19,09,02,11.60
2016,05,19,09,03,11.60
2016,05,19,09,04,11.70
2016,05,19,09,05,11.70
2016,05,19,09,06,11.70
2016,05,19,09,07,11.70
2016,05,19,09,08,11.70
2016,05,19,09,09,11.80
2016,05,19,09,10,11.80
2016,05,19,09,11,11.80
2016,05,19,09,12,11.80
2016,05,19,09,13,11.90
2016,05,19,09,14,11.90
2016,05,19,09,15,11.90
2016,05,19,09,16,11.90
2016,05,19,09,17,12.00
2016,05,19,09,18,12.00
2016,05,19,09,19,12.00
2016,05,19,09,20,12.00
2016,05,19,09,21,12.00
2016,05,19,09,22,12.10
2016,05,19,09,23,12.10
2016,05,19,09,24,12.10
2016,05,19,09,25,12.10
2016,05,19,09,26,12.10
2016,05,19,09,27,12.10
2016,05,19,09,28,12.10
2016,05,19,09,29,12.10
2016,05,19,09,30,12.20
2016,05,19,09,31,12.20
2016,05,19,09,32,12.30
2016,05,19,09,33,12.30
2016,05,19,09,34,12.30
2016,05,19,09,35,12.30
2016,05,19,09,36,12.40
2016,05,19,09,37,12.40
2016,05,19,09,38,12.40
2016,05,19,09,39,12.40
2016,05,19,09,40,12.40
2016,05,19,09,41,12.40
2016,05,19,09,42,12.40
2016,05,19,09,43,12.30
2016,05,19,09,44,12.30
2016,05,19,09,45,12.40
2016,05,19,09,46,12.40
2016,05,19,09,47,12.40
2016,05,19,09,48,12.40
2016,05,19,09,49,12.40
2016,05,19,09,50,12.40
2016,05,19,09,51,12.40
2016,05,19,09,52,12.40
2016,05,19,09,53,12.40
2016,05,19,09,54,12.40
2016,05,19,09,55,12.40
2016,05,19,09,56,12.40
2016,05,19,09,57,12.40
2016,05,19,09,58,12.40
2016,05,19,09,59,12.50
2016,05,19,10,00,12.50
2016,05,19,10,01,12.50
2016,05,19,10,02,12.50
2016,05,19,10,03,12.60
2016,05,19,10,04,12.60
2016,05,19,10,05,12.60
2016,05,19,10,06,12.60
2016,05,19,10,07,12.60
2016,05,19,10,08,12.60
2016,05,19,10,09,12.70
2016,05,19,10,10,12.70
2016,05,19,10,11,12.70
2016,05,19,10,12,12.70
2016,05,19,10,13,12.70
2016,05,19,10,14,12.70
2016,05,19,10,15,12.70
2016,05,19,10,16,12.70
2016,05,19,10,17,12.70
2016,05,19,10,18,12.60
2016,05,19,10,19,12.60
2016,05,19,10,20,12.60
2016,05,19,10,21,12.60
2016,05,19,10,22,12.50
2016,05,19,10,23,12.60
2016,05,19,10,24,12.60
2016,05,19,10,25,12.60
2016,05,19,10,26,12.60
2016,05,19,10,27,12.60
2016,05,19,10,28,12.70
2016,05,19,10,29,12.70
2016,05,19,10,30,12.80
2016,05,19,10,31,12.80
2016,05,19,10,32,12.90
2016,05,19,10,33,12.90
2016,05,19,10,34,12.90
2016,05,19,10,35,12.90
2016,05,19,10,36,12.90
2016,05,19,10,37,12.90
2016,05,19,10,38,12.90
2016,05,19,10,39,13.00
2016,05,19,10,40,13.00
2016,05,19,10,41,13.10
2016,05,19,10,42,13.20
2016,05,19,10,43,13.20
2016,05,19,10,44,13.30
2016,05,19,10,45,13.40
2016,05,19,10,46,13.40
2016,05,19,10,47,13.40
2016,05,19,10,48,13.50
2016,05,19,10,49,13.60
2016,05,19,10,50,13.60
2016,05,19,10,51,13.60
2016,05,19,10,52,13.60
2016,05,19,10,53,13.70
2016,05,19,10,54,13.70
2016,05,19,10,55,13.70
2016,05,19,10,56,13.70
2016,05,19,10,57,13.70
2016,05,19,10,58,13.60
2016,05,19,10,59,13.60
2016,05,19,11,00,13.60
2016,05,19,11,01,13.60
2016,05,19,11,02,13.60
2016,05,19,11,03,13.60
2016,05,19,11,04,13.60
2016,05,19,11,05,13.50
2016,05,19,11,06,13.50
2016,05,19,11,07,13.50
2016,05,19,11,08,13.50
2016,05,19,11,09,13.60
2016,05,19,11,10,13.60
2016,05,19,11,11,13.70
2016,05,19,11,12,13.70
2016,05,19,11,13,13.70
2016,05,19,11,14,13.70
2016,05,19,11,15,13.80
2016,05,19,11,16,13.80
2016,05,19,11,17,13.90
2016,05,19,11,18,14.00
2016,05,19,11,19,14.00
2016,05,19,11,20,14.10
2016,05,19,11,21,14.20
2016,05,19,11,22,14.20
2016,05,19,11,23,14.20
2016,05,19,11,24,14.20
2016,05,19,11,25,14.20
2016,05,19,11,26,14.30
2016,05,19,11,27,14.40
2016,05,19,11,28,14.50
2016,05,19,11,29,14.50
2016,05,19,11,30,14.50
2016,05,19,11,31,14.50
2016,05,19,11,32,14.60
2016,05,19,11,33,14.70
2016,05,19,11,34,14.70
2016,05,19,11,35,14.80
2016,05,19,11,36,14.80
2016,05,19,11,37,14.90
2016,05,19,11,38,14.90
2016,05,19,11,39,14.90
2016,05,19,11,40,14.90
2016,05,19,11,41,14.80
2016,05,19,11,42,14.70
2016,05,19,11,43,14.60
2016,05,19,11,44,14.60
2016,05,19,11,45,14.60
2016,05,19,11,46,14.70
2016,05,19,11,47,14.60
2016,05,19,11,48,14.50
2016,05,19,11,49,14.50
2016,05,19,11,50,14.40
2016,05,19,11,51,14.40
2016,05,19,11,52,14.40
2016,05,19,11,53,14.40
2016,05,19,11,54,14.40
2016,05,19,11,55,14.40
2016,05,19,11,56,14.40
2016,05,19,11,57,14.50
2016,05,19,11,58,14.60
2016,05,19,11,59,14.60
2016,05,19,12,00,14.60
2016,05,19,12,01,14.70
2016,05,19,12,02,14.70
2016,05,19,12,03,14.80
2016,05,19,12,04,14.80
2016,05,19,12,05,14.70
2016,05,19,12,06,14.70
2016,05,19,12,07,14.70
2016,05,19,12,08,14.70
2016,05,19,12,09,14.70
2016,05,19,12,10,14.60
2016,05,19,12,11,14.60
2016,05,19,12,12,14.60
2016,05,19,12,13,14.50
2016,05,19,12,14,14.50
2016,05,19,12,15,14.60
2016,05,19,12,16,14.60
2016,05,19,12,17,14.60
2016,05,19,12,18,14.60
2016,05,19,12,19,14.60
2016,05,19,12,20,14.60
2016,05,19,12,21,14.70
2016,05,19,12,22,14.70
2016,05,19,12,23,14.80
2016,05,19,12,24,14.90
2016,05,19,12,25,15.00
2016,05,19,12,26,15.00
2016,05,19,12,27,14.90
2016,05,19,12,28,14.80
2016,05,19,12,29,14.80
2016,05,19,12,30,14.80
2016,05,19,12,31,14.80
2016,05,19,12,32,14.80
2016,05,19,12,33,14.90
2016,05,19,12,34,14.90
2016,05,19,12,35,15.00
2016,05,19,12,36,15.00
2016,05,19,12,37,15.10
2016,05,19,12,38,15.10
2016,05,19,12,39,15.10
2016,05,19,12,40,15.10
2016,05,19,12,41,15.10
2016,05,19,12,42,15.00
2016,05,19,12,43,15.10
2016,05,19,12,44,15.00
2016,05,19,12,45,15.10
2016,05,19,12,46,15.10
2016,05,19,12,47,15.20
2016,05,19,12,48,15.30
2016,05,19,12,49,15.30
2016,05,19,12,50,15.20
2016,05,19,12,51,15.30
2016,05,19,12,52,15.20
2016,05,19,12,53,15.20
2016,05,19,12,54,15.30
2016,05,19,12,55,15.30
2016,05,19,12,56,15.30
2016,05,19,12,57,15.30
2016,05,19,12,58,15.30
2016,05,19,12,59,15.40
2016,05,19,13,00,15.50
2016,05,19,13,01,15.60
2016,05,19,13,02,15.60
2016,05,19,13,03,15.70
2016,05,19,13,04,15.70
2016,05,19,13,05,15.60
2016,05,19,13,06,15.60
2016,05,19,13,07,15.60
2016,05,19,13,08,15.60
2016,05,19,13,09,15.60
2016,05,19,13,10,15.60
2016,05,19,13,11,15.60
2016,05,19,13,12,15.60
2016,05,19,13,13,15.60
2016,05,19,13,14,15.60
2016,05,19,13,15,15.60
2016,05,19,13,16,15.60
2016,05,19,13,17,15.60
2016,05,19,13,18,15.60
2016,05,19,13,19,15.50
2016,05,19,13,20,15.40
2016,05,19,13,21,15.30
2016,05,19,13,22,15.30
2016,05,19,13,23,15.40
2016,05,19,13,24,15.60
2016,05,19,13,25,15.70
2016,05,19,13,26,15.80
2016,05,19,13,27,15.90
2016,05,19,13,28,16.00
2016,05,19,13,29,16.10
2016,05,19,13,30,16.10
2016,05,19,13,31,16.20
2016,05,19,13,32,16.30
2016,05,19,13,33,16.30
2016,05,19,13,34,16.30
2016,05,19,13,35,16.40
2016,05,19,13,36,16.50
2016,05,19,13,37,16.50
2016,05,19,13,38,16.50
2016,05,19,13,39,16.60
2016,05,19,13,40,16.60
2016,05,19,13,41,16.60
2016,05,19,13,42,16.60
2016,05,19,13,43,16.60
2016,05,19,13,44,16.50
2016,05,19,13,45,16.50
2016,05,19,13,46,16.50
2016,05,19,13,47,16.50
2016,05,19,13,48,16.50
2016,05,19,13,49,16.50
2016,05,19,13,50,16.50
2016,05,19,13,51,16.40
2016,05,19,13,52,16.50
2016,05,19,13,53,16.50
2016,05,19,13,54,16.50
2016,05,19,13,55,16.50
2016,05,19,13,56,16.40
2016,05,19,13,57,16.40
2016,05,19,13,58,16.40
2016,05,19,13,59,16.40
2016,05,19,14,00,16.40
2016,05,19,14,01,16.40
2016,05,19,14,02,16.40
2016,05,19,14,03,16.50
2016,05,19,14,04,16.50
2016,05,19,14,05,16.60
2016,05,19,14,06,16.70
2016,05,19,14,07,16.70
2016,05,19,14,08,16.70
2016,05,19,14,09,16.80
2016,05,19,14,10,16.80
2016,05,19,14,11,16.70
2016,05,19,14,12,16.70
2016,05,19,14,13,16.70
2016,05,19,14,14,16.70
2016,05,19,14,15,16.70
2016,05,19,14,16,16.70
2016,05,19,14,17,16.70
2016,05,19,14,18,16.70
2016,05,19,14,19,16.80
2016,05,19,14,20,16.80
2016,05,19,14,21,16.80
2016,05,19,14,22,16.70
2016,05,19,14,23,16.70
2016,05,19,14,24,16.70
2016,05,19,14,25,16.70
2016,05,19,14,26,16.70
2016,05,19,14,27,16.80
2016,05,19,14,28,16.80
2016,05,19,14,29,16.80
2016,05,19,14,30,16.80
2016,05,19,14,31,16.90
2016,05,19,14,32,16.90
2016,05,19,14,33,17.00
2016,05,19,14,34,17.10
2016,05,19,14,35,17.10
2016,05,19,14,36,17.20
2016,05,19,14,37,17.10
2016,05,19,14,38,17.10
2016,05,19,14,39,17.00
2016,05,19,14,40,16.90
2016,05,19,14,41,16.90
2016,05,19,14,42,16.90
2016,05,19,14,43,16.70
2016,05,19,14,44,16.60
2016,05,19,14,45,16.50
2016,05,19,14,46,16.40
2016,05,19,14,47,16.30
2016,05,19,14,48,16.30
2016,05,19,14,49,16.10
2016,05,19,14,50,16.10
2016,05,19,14,51,16.00
2016,05,19,14,52,16.00
2016,05,19,14,53,16.00
2016,05,19,14,54,15.90
2016,05,19,14,55,15.90
2016,05,19,14,56,15.80
2016,05,19,14,57,15.80
2016,05,19,14,58,15.80
2016,05,19,14,59,15.80
2016,05,19,15,00,15.80
2016,05,19,15,01,15.80
2016,05,19,15,02,15.80
2016,05,19,15,03,15.80
2016,05,19,15,04,15.80
2016,05,19,15,05,15.70
2016,05,19,15,06,15.70
2016,05,19,15,07,15.70
2016,05,19,15,08,15.60
2016,05,19,15,09,15.60
2016,05,19,15,10,15.60
2016,05,19,15,11,15.50
2016,05,19,15,12,15.50
2016,05,19,15,13,15.40
2016,05,19,15,14,15.40
2016,05,19,15,15,15.40
2016,05,19,15,16,15.40
2016,05,19,15,17,15.30
2016,05,19,15,18,15.30
2016,05,19,15,19,15.20
2016,05,19,15,20,15.30
2016,05,19,15,21,15.30
2016,05,19,15,22,15.30
2016,05,19,15,23,15.20
2016,05,19,15,24,15.20
2016,05,19,15,25,15.20
2016,05,19,15,26,15.20
2016,05,19,15,27,15.20
2016,05,19,15,28,15.20
2016,05,19,15,29,15.20
2016,05,19,15,30,15.20
2016,05,19,15,31,15.20
2016,05,19,15,32,15.30
2016,05,19,15,33,15.30
2016,05,19,15,34,15.30
2016,05,19,15,35,15.40
2016,05,19,15,36,15.40
2016,05,19,15,37,15.40
2016,05,19,15,38,15.50
2016,05,19,15,39,15.60
2016,05,19,15,40,15.60
2016,05,19,15,41,15.70
2016,05,19,15,42,15.70
2016,05,19,15,43,15.70
2016,05,19,15,44,15.80
2016,05,19,15,45,15.80
2016,05,19,15,46,15.80
2016,05,19,15,47,15.80
2016,05,19,15,48,15.80
2016,05,19,15,49,15.80
2016,05,19,15,50,15.80
2016,05,19,15,51,15.80
2016,05,19,15,52,15.70
2016,05,19,15,53,15.70
2016,05,19,15,54,15.60
2016,05,19,15,55,15.60
2016,05,19,15,56,15.50
2016,05,19,15,57,15.50
2016,05,19,15,58,15.40
2016,05,19,15,59,15.40
2016,05,19,16,00,15.40
2016,05,19,16,01,15.40
2016,05,19,16,02,15.30
2016,05,19,16,03,15.30
2016,05,19,16,04,15.30
2016,05,19,16,05,15.20
2016,05,19,16,06,15.10
2016,05,19,16,07,15.10
2016,05,19,16,08,15.10
2016,05,19,16,09,15.10
2016,05,19,16,10,15.10
2016,05,19,16,11,15.10
2016,05,19,16,12,15.10
2016,05,19,16,13,15.10
2016,05,19,16,14,15.10
2016,05,19,16,15,15.10
2016,05,19,16,16,15.00
2016,05,19,16,17,15.00
2016,05,19,16,18,15.00
2016,05,19,16,19,14.90
2016,05,19,16,20,14.90
2016,05,19,16,21,14.90
2016,05,19,16,22,14.90
2016,05,19,16,23,14.90
2016,05,19,16,24,14.90
2016,05,19,16,25,14.80
2016,05,19,16,26,14.80
2016,05,19,16,27,14.80
2016,05,19,16,28,14.80
2016,05,19,16,29,14.80
2016,05,19,16,30,14.70
2016,05,19,16,31,14.70
2016,05,19,16,32,14.70
2016,05,19,16,33,14.80
2016,05,19,16,34,14.80
2016,05,19,16,35,14.80
2016,05,19,16,36,14.80
2016,05,19,16,37,14.90
2016,05,19,16,38,14.90
2016,05,19,16,39,14.90
2016,05,19,16,40,14.90
2016,05,19,16,41,14.90
2016,05,19,16,42,15.00
2016,05,19,16,43,15.00
2016,05,19,16,44,15.00
2016,05,19,16,45,14.90
2016,05,19,16,46,14.90
2016,05,19,16,47,14.90
2016,05,19,16,48,14.90
2016,05,19,16,49,14.80
2016,05,19,16,50,14.80
2016,05,19,16,51,14.80
2016,05,19,16,52,14.80
2016,05,19,16,53,14.70
2016,05,19,16,54,14.60
2016,05,19,16,55,14.60
2016,05,19,16,56,14.50
2016,05,19,16,57,14.50
2016,05,19,16,58,14.40
2016,05,19,16,59,14.40
2016,05,19,17,00,14.30
2016,05,19,17,01,14.30
2016,05,19,17,02,14.30
2016,05,19,17,03,14.30
2016,05,19,17,04,14.20
2016,05,19,17,05,14.20
2016,05,19,17,06,14.20
2016,05,19,17,07,14.20
2016,05,19,17,08,14.20
2016,05,19,17,09,14.20
2016,05,19,17,10,14.20
2016,05,19,17,11,14.10
2016,05,19,17,12,14.10
2016,05,19,17,13,14.10
2016,05,19,17,14,14.10
2016,05,19,17,15,14.10
2016,05,19,17,16,14.10
2016,05,19,17,17,14.10
2016,05,19,17,18,14.10
2016,05,19,17,19,14.10
2016,05,19,17,20,14.10
2016,05,19,17,21,14.10
2016,05,19,17,22,14.10
2016,05,19,17,23,14.10
2016,05,19,17,24,14.10
2016,05,19,17,25,14.10
2016,05,19,17,26,14.10
2016,05,19,17,27,14.10
2016,05,19,17,28,14.20
2016,05,19,17,29,14.10
2016,05,19,17,30,14.10
2016,05,19,17,31,14.10
2016,05,19,17,32,14.10
2016,05,19,17,33,14.10
2016,05,19,17,34,14.00
2016,05,19,17,35,14.00
2016,05,19,17,36,13.90